Location: Enborne
(51.3833°N, 1.3667°W)
Time: 23:30:27
(UTC+00:00)

ATLAS CENTAUR R/B - Pass Details

Date: 18 September 2020
Orbit: 479 x 667 km, 64.7° (Epoch: 12 October)

Event Time Altitude Azimuth Distance (km) Brightness Sun altitude
Rises 19:26:09 0° 268° (W) 2,646 6.3 -12.2°
Reaches altitude 10° 19:28:52 10° 286° (WNW) 1,729 5.4 -12.6°
Maximum altitude 19:31:41 19° 334° (NNW) 1,240 3.7 -13.0°
Drops below altitude 10° 19:34:25 10° 21° (NNE) 1,685 3.8 -13.4°
Sets 19:37:01 0° 40° (NE) 2,555 4.5 -13.8°
